Weather Roundup
Issued by NWS

Home | Current Version | Previous Version | Graphics & Text | Print | Product List | Glossary Off
Versions: 1 2 3 4 5 6 7 8 9 10 11 12 13 14 15 16 17 18 19 20 21 22 23 24 25 26 27 28 29 30 31 32 33 34 35 36 37 38 39 40 41 42 43 44 45 46 47 48 49 50

000
NZUS93 KARX 011610
HRRWXR

CURRENT HOURLY OBSERVATIONS ACROSS
MUCH OF THE UPPER MISSISSIPPI VALLEY
NATIONAL WEATHER SERVICE LA CROSSE WI
1000 AM CST SUN FEB 01 2015


...SOUTHEAST MINNESOTA...


CITY           SKY/WX    TMP DP  RH WIND       PRES   REMARKS
ROCHESTER      SNOW      12   8  84 NE24G33   30.09R VSB 1/2 WCI  -8
ROCHESTER/MAYO CLOUDY    13   8  81 N14G22    30.12R WCI  -2
WINONA         LGT SNOW  16  10  79 NE6       30.18S WCI   7
AUSTIN         LGT SNOW  14  10  85 NE20      30.06R VSB 3/4 WCI  -3
ALBERT LEA     SNOW      14  10  85 NE23      30.08R VSB 1/2 WCI  -5
DODGE CENTER   LGT SNOW  12   9  85 NE21      30.10R WCI  -6
PRESTON        CLOUDY    13   9  86 NE17G25   30.07R WCI  -4
OWATONNA       LGT SNOW  12   9  85 N22       30.14R WCI  -7
FARIBAULT      LGT SNOW  12   9  85 N17       30.18R WCI  -5
$$

...ELSEWHERE IN MINNESOTA...


CITY           SKY/WX    TMP DP  RH WIND       PRES   REMARKS
MINNEAPOLIS    CLOUDY    13   2  61 NE15      30.25R WCI  -3
INTNL FALLS    MOSUNNY  -13 -20  71 NE5       30.47S WCI -25
DULUTH         MOSUNNY   -1 -13  56 N13       30.33R WCI -19
RED WING       LGT SNOW  12   7  79 NE9G20    30.22R WCI   0
REDWOOD FALLS  LGT SNOW  11   4  73 N12G21    30.26R WCI  -3
MANKATO        CLOUDY   N/A N/A N/A NE21G29   30.16S VSB 3/4
WORTHINGTON    CLOUDY    28   3  34 N25G33    30.14R VSB 1/2 WCI  14
FAIRMONT       CLOUDY    14  10  85 N18       30.11R VSB 1/2 WCI  -3
$$

...SOUTHWEST WISCONSIN...


CITY           SKY/WX    TMP DP  RH WIND       PRES   REMARKS
LA CROSSE      LGT SNOW  16   9  74 N10G20    30.13F WCI   4
PRAIRIE DU CHI MIX PCPN  18  12  78 N12G23    30.01F VSB 1   WCI   5
BOSCOBEL       LGT SNOW  18  12  77 NE10G24   30.03F VSB 3/4 WCI   6
LONE ROCK      LGT SNOW  17  11  77 NE18G32   30.04F WCI   1
PLATTEVILLE    CLOUDY    19  16  89 NE30G38   29.90F VSB 3/4 WCI  -1
FORT MC COY    LGT SNOW  14  10  81 NE13G20   30.13F WCI   0
CAMP DOUGLAS   LGT SNOW  14  12  92 NE13G23   30.12F BLWGSNOWWCI   0
VIROQUA        CLOUDY    14  10  84 NE20G30   30.03F WCI  -4
WIS DELLS      LGT SNOW  13   9  85 NE16G24   30.06F WCI  -3
$$

...ELSEWHERE IN WISCONSIN...


CITY           SKY/WX    TMP DP  RH WIND       PRES   REMARKS
MILWAUKEE      SNOW      23  19  85 NE29G37   30.03F VSB 1/4 WCI   6
MADISON        LGT SNOW  16  12  84 NE17G28   30.03S VSB 1   WCI   0
GREEN BAY      LGT SNOW  10   5  80 NE31G37   30.22S WCI -13
EAU CLAIRE     CLOUDY    11   1  64 NE13G21   30.22R WCI  -4
BLACK RVR FLS  LGT SNOW  14   9  80 NE13      30.16F WCI  -1
MEDFORD        CLOUDY     8   1  70 NE18G24   30.17S WCI -11
WAUSAU         CLOUDY    10   2  69 NE12G18   30.18R WCI  -5
WIS RAPIDS     LGT SNOW  12   5  73 NE12G24   30.17S VSB 1   WCI  -2
MARSHFIELD     CLOUDY    12   3  67 NE15      30.16S WCI  -4
RICE LAKE      CLOUDY    10   0  64 NE15      30.26F WCI  -6
$$

...NORTHEAST IOWA...


CITY           SKY/WX    TMP DP  RH WIND       PRES   REMARKS
DECORAH        LGT SNOW  14  10  85 NE13G23   30.00S VSB 3/4 WCI   0
MASON CITY     SNOW      16  12  84 NE25G36   30.04R VSB 1/2 WCI  -3
CHARLES CITY   LGT SNOW  16  14  93 NE26G33   29.99R VSB 3/4 WCI  -3
OELWEIN        SNOW      18  14  86 NE29G36   29.91S VSB 1/4 WCI  -2
$$

...ELSEWHERE IN IOWA...


CITY           SKY/WX    TMP DP  RH WIND       PRES   REMARKS
DES MOINES     SNOW      29  25  85 NE22G28   29.84R VSB 1/2 WCI  15
IOWA CITY      SNOW      27  24  89 NE21G33   29.84R VSB 1/2 WCI  13
FORT DODGE     CLOUDY    19  14  79 CALM      29.99R VSB 1/2
$$

...NORTHERN ILLINOIS...


CITY           SKY/WX    TMP DP  RH WIND       PRES   REMARKS
CHICAGO-OHARE  HVY SNOW  29  27  92 NE18      29.90F VSB 1/4 WCI  16
CHICAGO-MIDWAY SNOW      33  31  92 NE17      29.88F VSB 1/2 WCI  22
MOLINE         LGT SNOW  31  28  89 NE18G29   29.80S VSB 3/4 WCI  19
ROCKFORD       SNOW      25  21  85 NE26      29.91F VSB 1/2 WCI   9
PEORIA         LGT SNOW  34  32  92 E8        29.75F FOG     WCI  27
$$

NOTE: "FAIR" INDICATES FEW OR NO CLOUDS BELOW 12,000 FEET WITH NO
SIGNIFICANT WEATHER AND/OR OBSTRUCTIONS TO VISIBILITY. WIND
SPEEDS ARE IN MILES-PER-HOUR.



USA.gov is the U.S. government's official web portal to all federal, state and local government web resources and services.